Regional Weather Roundup
Issued by NWS State College, PA

Home | Current Version | Previous Version | Text Only | Print | Product List | Glossary On
Versions: 1 2 3 4 5 6 7 8 9 10 11 12 13 14 15 16 17 18 19 20 21 22 23 24 25 26 27 28 29 30 31 32 33 34 35 36 37 38 39 40 41 42 43 44 45 46 47 48 49 50
000
ASUS41 KCTP 021803
RWRCTP

REGIONAL WEATHER ROUNDUP
NATIONAL WEATHER SERVICE STATE COLLEGE PA
100 PM EST MON MAR 02 2015

Note: "fair" indicates few or no clouds below 12,000 feet with no
significant weather and/or obstructions to visibility.

* = STATION THAT DOES NOT REPORT PRECIPITATION /E.G. RAIN...SNOW...ETC/
    THUNDER OR FOG.

PAZ002>004-007>009-013>016-020>023-029>032-021900-
WESTERN PENNSYLVANIA

CITY           SKY/WX    TMP DP  RH WIND       PRES   REMARKS
ERIE           SUNNY     25  15  66 W16       30.42R WCI  12
MEADVILLE        N/A     25  11  55 W12       30.37R WCI  14
FRANKLIN*      PTSUNNY   25  10  54 W16G22    30.37S WCI  12
NEW CASTLE     FAIR      27  13  55 W10       30.42F
BEAVER COUNTY  FLURRIES  27  18  69 W7        30.41
BUTLER*        CLOUDY    27  16  63 W10G17    30.41F
PITTSBURGH INT PTSUNNY   27  16  63 W13       30.41F
PITTSBURGH     CLOUDY    27  11  51 NW9G20    30.39F
INDIANA*       CLOUDY    25  18  74 W12G21    30.39F WCI  14
LATROBE        NOT AVBL
WASHINGTON CO* CLOUDY    28  16  59 W13G18    30.44S
$$

PAZ004>006-010>012-017>019-024>028-033>037-041-042-045-046-049>053-021900-
CENTRAL PENNSYLVANIA

CITY           SKY/WX    TMP DP  RH WIND       PRES   REMARKS
BRADFORD       MIX PCPN  21   9  59 W16G25    30.24R WCI   7
DUBOIS         CLOUDY    24  14  65 W17G26    30.29S WCI  11
CLEARFIELD     CLOUDY    25  13  60 W15G28    30.30S WCI  13
JOHNSTOWN      FLURRIES  23  14  68 W25G31    30.25S WCI   7
ALTOONA        CLOUDY    27  14  58 W14G23    30.30R
STATE COLLEGE  PTSUNNY   28  14  54 NW17G28   30.28F
WILLIAMSPORT   PTSUNNY   33  13  43 W14       30.24F
SELINSGROVE    SUNNY     34  14  43 NW15G23   30.27F
FT INDIANTOWN  SUNNY     34  12  40 W10G31    30.24F
CAPITAL CITY   SUNNY     35  13  40 NW16G33   30.26F
HARRISBURG     MOSUNNY   34  16  47 W21G29    30.27F
YORK           SUNNY     35  14  42 NW17      30.26F
$$

PAZ038>040-043-044-047-048-054-055-060>062-067>071-021900-
EASTERN PENNSYLVANIA

CITY           SKY/WX    TMP DP  RH WIND       PRES   REMARKS
SCRANTON       MIX PCPN  32  12  43 NW22G29   30.16F
MOUNT POCONO   MIX PCPN  28  10  46 NW24G33   30.07F WCI  14
ALLENTOWN      SUNNY     35  13  40 NW15G22   30.18F
QUAKERTOWN*    CLEAR     34  14  44 NW10G20   30.20F
READING        LGT RAIN  35  14  42 W26G33    30.21F
LANCASTER      SUNNY     34  16  47 W22G30    30.24F
COATESVILLE    CLEAR     34  23  64 NW18      30.22F
POTTSTOWN      SUNNY     35  15  44 W15G25    30.22F
BLUE BELL      SUNNY     36  18  48 NW17      30.20F
DOYLESTOWN     SUNNY     35  15  44 NW15G24   30.18S
WILLOW GROVE   NOT AVBL
NORTH PHILA    SUNNY     38  15  39 NW17G32   30.22F
PHILADELPHIA   MOSUNNY   38  19  46 NW15G22   30.23S
$$



USA.gov is the U.S. government's official web portal to all federal, state and local government web resources and services.